Tracking 20712 objects as of 29-May-2020
HD Live streaming from Space Station
objects crossing your sky now

IRIDIUM 33 DEB

Track IRIDIUM 33 DEB now!
10-day predictions


NORAD ID: 39792
Int'l Code: 1997-051AAZ
Perigee: 739.7 km
Apogee: 1,018.2 km
Inclination: 86.4 °
Period: 102.4 minutes
Semi major axis: 7249 km
RCS: Unknown
Launch date: September 14, 1997
Source: United States (US)
Launch site: TYURATAM MISSILE AND SPACE COMPLEX (TTMTR)

Note: This is SATELLITE DEBRIS
aabbcc
Your satellite tracking list
Your tracking list is empty




NASA's NSSDC Master Catalog

Two Line Element Set (TLE):
1 39792U 97051AAZ 20149.42623861 +.00000729 +00000-0 +36426-3 0  9992
2 39792 086.4223 317.5364 0192096 027.4352 333.6812 14.06366912306885
Source of the keplerian elements: AFSPC